[[{"header":{"parameterUnit":"m.s-1","parameterCategory":1,"la1":30.2991,"la2":30.254,"lo1":-89.0895,"lo2":-89.0444,"dy":0.0017,"dx":0.0017,"nx":28,"ny":28,"refTime":"2024-05-27T03:00:00:Z","depth":0,"parameterNumber":2,"parameterNumberName":"U-component_of_WINDS"},"data":[0,0,0,0,0,0,0,0,0,0,0,0,0,0,0,0,0,0,0,0,0,0,0,0,0,0,0,0,0,0,0,0,0,0,0,0,0,0,0,0,0,0,0,0,0,0,0,0,0,0,0,0,0,0,0,0,0,0,1.9636,1.9637,0,1.9716,1.9717,1.9718,1.9697,1.9695,1.9693,1.9692,1.9776,1.978,1.9784,0,0,0,0,0,0,0,0,0,0,0,0,0,1.9466,1.947,1.9636,1.9637,1.9638,1.9716,1.9717,1.9718,1.9697,1.9695,1.9693,1.9691,1.9775,1.9779,1.9784,0,0,0,0,0,0,0,0,0,0,0,0,0,1.9543,1.9471,1.9636,1.9637,1.9638,1.9716,1.9717,1.9718,1.9697,1.9695,1.9693,1.969,1.9774,1.9779,1.9785,1.9867,0,0,1.9802,1.9804,0,0,0,0,0,0,0,0,1.9538,1.9549,1.9636,1.9637,1.9638,1.9694,1.9688,1.9768,1.9698,1.9675,1.9692,1.9689,1.9751,1.9758,1.9779,1.9871,1.9875,1.9802,1.9806,1.9808,1.981,0,0,0,0,0,0,0,1.9533,1.9545,1.9668,1.9637,1.9638,1.9634,1.9642,1.9703,1.9725,1.9677,1.9675,1.9685,1.9751,1.9773,1.978,1.9876,1.9802,1.9807,1.9811,1.9813,2.004,2.0043,0,0,0,0,0,0,1.9527,1.9541,1.9665,1.967,1.9581,1.9639,1.9648,1.9678,1.9725,1.9729,1.9687,1.9684,1.9765,1.9774,1.9783,1.9883,1.9808,1.9813,1.9816,2.0038,2.0041,2.0044,0,0,0,0,0,0,1.9523,1.9538,1.9662,1.9605,1.9621,1.9644,1.9679,1.9681,1.9703,1.9732,1.9736,1.9705,1.9763,1.9775,1.9846,1.9886,1.9816,1.9821,2.0035,2.0039,2.0042,2.0083,0,0,0,0,0,0,1.9518,1.9537,1.9568,1.9606,1.9624,1.9723,1.9681,1.9684,1.9713,1.9709,1.9751,1.9755,1.9762,1.9838,1.9852,1.9892,1.9825,2.0031,2.0036,2.0041,2.0078,2.0088,2.0096,0,0,0,0,0,1.9512,1.9577,1.957,1.9585,1.9663,1.9725,1.9736,1.9742,1.9716,1.9748,1.9766,1.9754,1.9879,1.9846,1.9861,1.9903,2.0029,2.0035,2.0041,2.0074,2.0086,2.0096,0,0,0,0,0,0,1.9544,1.9582,1.9574,1.9653,1.9686,1.9722,1.9762,1.9754,1.9796,1.9791,1.9797,1.9807,1.9879,1.9898,1.986,1.9986,1.995,1.996,1.997,1.9982,1.9991,1.9984,1.983,0,0,0,0,0,1.9559,1.9606,1.9637,1.9704,1.9721,1.9739,1.9766,1.9768,1.9802,1.9816,1.984,1.9875,1.9922,1.9953,1.9998,2.0081,2.009,2.0118,2.0127,2.0134,2.0142,2.0187,2.02,2.0064,2.0064,2.0064,0,0,1.9593,1.962,1.9649,1.9711,1.9736,1.9785,1.975,1.9803,1.984,1.9825,1.9893,1.9912,1.9951,2.0028,2.0063,2.0046,2.0181,2.0142,2.0147,2.0151,2.0194,2.0207,2.0219,2.0068,2.0067,2.0066,0,0,1.9679,1.9704,1.9762,1.9788,1.9827,1.9839,1.9853,1.989,1.9901,1.9969,1.9959,2.0003,2.0084,2.0112,2.0137,2.0233,2.0223,2.0248,2.0295,2.0338,2.0349,2.0359,2.0393,2.0405,2.0256,2.0256,2.0256,0,1.9716,1.9788,1.9793,1.9847,1.9874,1.9862,1.9921,1.9946,1.9998,2.0018,1.9998,2.0099,2.0125,2.0208,2.0231,2.0252,2.0269,2.0243,2.0347,2.0357,2.0366,2.0398,2.0411,2.0259,2.0258,2.0258,2.0258,0,1.9832,1.9882,1.9924,1.9974,2.0006,2.0062,2.0075,2.0108,2.0107,2.012,2.019,2.022,2.0271,2.0291,2.0291,2.0375,2.0363,2.0345,2.031,2.0381,2.0412,2.0425,2.0262,2.0262,2.0261,2.026,0,0,1.994,1.9991,2.0006,2.0028,2.0071,2.011,2.0165,2.0214,2.0242,2.0278,2.0325,2.0394,2.0377,2.0406,2.0409,2.0447,2.0521,2.0425,2.0426,2.0441,2.0615,2.0628,2.0642,2.0515,2.0517,2.0519,2.0611,0,2.0029,2.0126,2.0132,2.022,2.0266,2.0255,2.0304,2.0335,2.035,2.0392,2.0408,2.0456,2.0431,2.0448,2.0485,2.0504,2.0556,2.0498,2.0559,2.0561,2.0549,2.0658,2.0672,2.0758,2.0624,2.0626,2.0627,0,2.0147,2.0186,2.0278,2.0313,2.0333,2.0376,2.0421,2.0461,2.0497,2.0504,2.0536,2.0533,2.0591,2.0553,2.0633,2.0593,2.0618,2.0631,2.0635,2.0641,2.0598,2.0667,2.0785,2.0798,2.0646,2.0645,2.0643,0,2.0216,2.0292,2.0356,2.0376,2.0419,2.0449,2.0469,2.0502,2.053,2.057,2.0589,2.0635,2.066,2.0696,2.0706,2.0678,2.0786,2.0749,2.0794,2.0794,2.0817,2.0815,2.0941,2.0834,2.0834,2.0833,2.0833,0,2.0315,2.0372,2.0388,2.0428,2.0492,2.0498,2.0561,2.0578,2.0608,2.0651,2.0645,2.0686,2.0697,2.074,2.0749,2.0813,2.0825,2.0833,2.0834,2.0833,2.0832,2.085,2.0844,2.0837,2.0836,2.0835,2.0835,0,2.0403,2.0416,2.0486,2.052,2.053,2.0576,2.0605,2.0644,2.0657,2.0712,2.0726,2.0747,2.0798,2.0811,2.0872,2.0878,2.0953,2.095,2.0941,2.0941,2.0985,2.0981,2.1126,2.1145,2.1026,2.1027,2.1028,0,2.0465,2.0508,2.0547,2.0575,2.0596,2.0642,2.0671,2.0678,2.0709,2.0752,2.0786,2.0836,2.0876,2.0957,2.0979,2.1025,2.1022,2.107,2.1029,2.1027,2.1023,2.102,2.1024,2.1078,2.1079,2.108,2.1081,0,2.0574,2.0578,2.062,2.0664,2.0699,2.0734,2.0768,2.0792,2.0804,2.0839,2.089,2.0921,2.0983,2.1032,2.1079,2.11,2.1093,2.1093,2.1106,2.1105,2.1098,2.1102,2.0962,2.109,2.1089,2.1088,2.1088,2.1088,2.0651,2.0689,2.0722,2.0768,2.0794,2.0826,2.0864,2.0881,2.0924,2.0974,2.0976,2.1032,2.1066,2.1128,2.1152,2.1196,2.1181,2.12,2.1205,2.1209,2.1212,2.1092,2.1204,2.1204,2.1204,2.1204,2.1203,0,2.0759,2.0779,2.0822,2.0869,2.0906,2.0895,2.0932,2.0964,2.1012,2.1045,2.1084,2.1143,2.1191,2.1215,2.1263,2.1294,2.1291,2.1306,2.1304,2.1308,2.1223,2.1207,2.1307,2.1307,2.1307,2.1307,2.1307,2.1306,2.082,2.0883,2.0891,2.0967,2.0988,2.1041,2.1063,2.1093,2.1118,2.1184,2.1223,2.1239,2.1268,2.1318,2.1361,2.1367,2.1385,2.1401,2.1405,2.1325,2.1314,2.1304,2.1289,2.1405,2.1405,2.1487,2.1488,2.1489]},{"header":{"parameterUnit":"m.s-1","parameterCategory":1,"la1":30.2991,"la2":30.254,"lo1":-89.0895,"lo2":-89.0444,"dy":0.0017,"dx":0.0017,"nx":28,"ny":28,"refTime":"2024-05-27T03:00:00:Z","depth":0,"parameterNumber":3,"parameterNumberName":"V-component_of_WINDS"},"data":[0,0,0,0,0,0,0,0,0,0,0,0,0,0,0,0,0,0,0,0,0,0,0,0,0,0,0,0,0,0,0,0,0,0,0,0,0,0,0,0,0,0,0,0,0,0,0,0,0,0,0,0,0,0,0,0,0,0,0.5418,0.5418,0,0.5436,0.5436,0.5436,0.5415,0.5414,0.5413,0.5412,0.5431,0.5432,0.5433,0,0,0,0,0,0,0,0,0,0,0,0,0,0.5367,0.5368,0.5418,0.5418,0.5419,0.5436,0.5436,0.5436,0.5415,0.5414,0.5413,0.5412,0.543,0.5432,0.5433,0,0,0,0,0,0,0,0,0,0,0,0,0,0.5387,0.5368,0.5418,0.541,0.5409,0.5436,0.5436,0.5436,0.5415,0.5414,0.5413,0.5412,0.543,0.5432,0.5434,0.5469,0,0,0.5439,0.544,0,0,0,0,0,0,0,0,0.5386,0.5389,0.5411,0.5411,0.541,0.5422,0.5424,0.5447,0.5415,0.5413,0.5412,0.5411,0.5429,0.5431,0.5437,0.5469,0.547,0.5439,0.544,0.5441,0.5442,0,0,0,0,0,0,0,0.5385,0.5388,0.5425,0.5411,0.5411,0.5406,0.5407,0.5429,0.5427,0.5413,0.5412,0.5414,0.5428,0.5435,0.5437,0.5471,0.5439,0.5441,0.5442,0.5443,0.5533,0.5534,0,0,0,0,0,0,0.5384,0.5387,0.5424,0.5426,0.5395,0.5407,0.5409,0.5419,0.5427,0.5427,0.5415,0.5413,0.5432,0.5435,0.5437,0.5479,0.5441,0.5443,0.5444,0.5531,0.5533,0.5534,0,0,0,0,0,0,0.5383,0.5388,0.5424,0.5406,0.541,0.541,0.5421,0.542,0.5427,0.5428,0.5428,0.5422,0.5431,0.5435,0.5461,0.5479,0.5444,0.5445,0.553,0.5532,0.5534,0.5562,0,0,0,0,0,0,0.5382,0.5387,0.5401,0.5406,0.5411,0.5447,0.5422,0.5421,0.543,0.5427,0.5435,0.5435,0.5431,0.5458,0.5463,0.5481,0.5447,0.5528,0.5531,0.5533,0.556,0.5565,0.5569,0,0,0,0,0,0.538,0.5408,0.5401,0.5406,0.5428,0.5448,0.5451,0.5445,0.5431,0.5445,0.5446,0.5435,0.5476,0.5461,0.5466,0.5485,0.5527,0.553,0.5533,0.5558,0.5564,0.5569,0,0,0,0,0,0,0.5405,0.5409,0.5401,0.5432,0.544,0.5445,0.5461,0.5452,0.5465,0.5462,0.5454,0.5456,0.5484,0.5487,0.547,0.5519,0.5499,0.5503,0.5517,0.5523,0.5527,0.5526,0.5448,0,0,0,0,0,0.5414,0.543,0.5433,0.546,0.5464,0.5462,0.5471,0.5466,0.5474,0.5477,0.548,0.5488,0.5503,0.5513,0.5526,0.556,0.5561,0.5575,0.558,0.5584,0.5588,0.5606,0.5612,0.5544,0.5544,0.5544,0,0,0.5433,0.5437,0.5448,0.5465,0.547,0.5487,0.5465,0.5484,0.5496,0.548,0.5505,0.5507,0.5515,0.5545,0.5558,0.5549,0.5607,0.5588,0.5591,0.5593,0.5609,0.5616,0.5621,0.5546,0.5545,0.5545,0,0,0.5477,0.5481,0.5505,0.551,0.5518,0.5517,0.5522,0.5528,0.5529,0.5554,0.5541,0.5556,0.5582,0.5588,0.5595,0.564,0.5631,0.5645,0.5671,0.5688,0.5693,0.5698,0.5715,0.572,0.5649,0.5649,0.5649,0,0.55,0.5525,0.5518,0.5537,0.5545,0.553,0.5554,0.5559,0.5572,0.5578,0.5566,0.5598,0.5603,0.5634,0.5645,0.5651,0.5657,0.5644,0.5693,0.5698,0.5702,0.5718,0.5724,0.565,0.565,0.565,0.565,0,0.5552,0.557,0.5587,0.56,0.5609,0.5631,0.5627,0.5638,0.5632,0.5631,0.5656,0.5661,0.5676,0.5683,0.5677,0.5713,0.5706,0.5694,0.5674,0.5711,0.5725,0.5731,0.5653,0.5652,0.5652,0.5651,0,0,0.5613,0.5621,0.5627,0.5632,0.564,0.5654,0.5674,0.5688,0.5697,0.5706,0.5723,0.5745,0.5734,0.5741,0.5736,0.5751,0.5787,0.5737,0.5737,0.5747,0.5827,0.5837,0.5844,0.578,0.5781,0.5782,0.5826,0,0.5657,0.5693,0.5687,0.5721,0.5737,0.5723,0.5741,0.5748,0.5748,0.5761,0.5761,0.5777,0.576,0.5765,0.5779,0.578,0.5803,0.5776,0.5797,0.5797,0.5796,0.5851,0.5861,0.5903,0.5832,0.5833,0.5834,0,0.5713,0.5724,0.576,0.5765,0.5771,0.5788,0.58,0.5813,0.582,0.5819,0.5827,0.5819,0.5839,0.5818,0.5847,0.5829,0.5836,0.5838,0.5839,0.5841,0.5818,0.5855,0.5916,0.5922,0.5842,0.5842,0.5841,0,0.5754,0.5777,0.5802,0.5807,0.5813,0.5825,0.5828,0.5834,0.5843,0.5853,0.5859,0.5871,0.5879,0.5889,0.5884,0.5869,0.5913,0.5892,0.5913,0.5913,0.5924,0.5923,0.5987,0.5928,0.5928,0.5927,0.5927,0,0.5804,0.5827,0.5821,0.5836,0.5861,0.5853,0.5878,0.588,0.5885,0.59,0.5889,0.5903,0.5896,0.591,0.5907,0.5931,0.5934,0.5934,0.5933,0.5935,0.5935,0.5941,0.5938,0.5929,0.5929,0.5928,0.5928,0,0.5854,0.5851,0.5877,0.5881,0.5882,0.59,0.5903,0.5918,0.5916,0.5936,0.594,0.5938,0.5954,0.595,0.5968,0.5965,0.5996,0.5991,0.5993,0.5992,0.6014,0.6012,0.6084,0.6093,0.6027,0.6028,0.6028,0,0.5887,0.5904,0.5909,0.5918,0.5922,0.5938,0.5946,0.5939,0.5949,0.5958,0.5971,0.5986,0.5997,0.6023,0.6024,0.6037,0.6032,0.6056,0.6034,0.6036,0.6033,0.6032,0.6034,0.6061,0.6062,0.6062,0.6063,0,0.5945,0.5942,0.5955,0.5967,0.5977,0.5987,0.5995,0.6003,0.5997,0.6008,0.6024,0.6033,0.6051,0.6066,0.6078,0.6081,0.6071,0.607,0.6075,0.6079,0.6079,0.608,0.6006,0.6068,0.6068,0.6067,0.6067,0.6067,0.5987,0.6002,0.6008,0.6022,0.6027,0.6035,0.6049,0.6049,0.6062,0.6076,0.6071,0.6089,0.6096,0.6111,0.6115,0.6129,0.612,0.6129,0.6131,0.6133,0.6136,0.6077,0.6132,0.6131,0.6131,0.6131,0.6131,0,0.6044,0.6047,0.6061,0.6073,0.6084,0.6073,0.6082,0.6092,0.6108,0.6115,0.6126,0.6145,0.6159,0.616,0.6173,0.6184,0.618,0.6188,0.6188,0.6188,0.6143,0.6137,0.6191,0.6191,0.6191,0.6191,0.6191,0.6191,0.6076,0.61,0.6098,0.6124,0.6127,0.6145,0.6151,0.6158,0.6163,0.6184,0.6196,0.6196,0.62,0.6214,0.6226,0.6226,0.6232,0.6242,0.624,0.6198,0.6192,0.6186,0.618,0.6243,0.6243,0.6284,0.6285,0.6285]}]]